Weather History for Maun, Botswana

Change the Weather History Date:

Tuesday, August 20, 2013

  Actual Average Record
Temperature  
Mean Temperature 70 °F -  
Max Temperature 86 °F 86 °F 93 °F (1997)
Min Temperature 55 °F 58 °F 50 °F (2003)
Cooling Degree Days 6    
Growing Degree Days 20 (Base 50)    
Moisture  
Dew Point 42 °F    
Average Humidity 41    
Maximum Humidity 72    
Minimum Humidity 15    
Precipitation  
Precipitation 0.00 in - - ()
Sea Level Pressure  
Sea Level Pressure 30.16 in    
Wind  
Wind Speed 9 mph ()    
Max Wind Speed 15 mph    
Max Gust Speed -    
Visibility 6.0 miles    
Events      
Averages and records for this station are not official NWS values.
T = Trace of Precipitation, MM = Missing Value Source: Averaged Metar Reports

Daily Weather History Graph

Daily Weather History Graph

Search for Another Location

Airport:

Trip Planner

Search our weather history database for the weather conditions in past years. The results will help you decide how hot, cold, wet, or windy it might be!

Date:

Astronomy

Aug. 20, 2013 Rise Set
Actual Time 6:44 AM CAT 6:15 PM CAT
Civil Twilight 6:21 AM CAT 6:37 PM CAT
Nautical Twilight 5:56 AM CAT 7:03 PM CAT
Astronomical Twilight 5:30 AM CAT 7:29 PM CAT
Moon 5:47 PM CAT (8/20) 5:50 AM CAT (8/20)
Length of Visible Light 12h 15m
Length of Day
11h 30m
Waxing Gibbous, 99% of the Moon is Illuminated
Aug 20
Waxing Gibbous
Aug 21
Full
Aug 28
Last Quarter
Sep 5
New
Sep 12
First Quarter

Hourly Weather History & Observations

Time (CAT) Temp. Dew Point Humidity Pressure Visibility Wind Dir Wind Speed Gust Speed Precip Events Conditions
12:00 AM 64.4 °F 30.2 °F 28% 30.15 in - ESE 13.8 mph - N/A   Clear
1:00 AM 62.6 °F 39.2 °F 42% 30.15 in - ESE 10.4 mph - N/A   Clear
2:00 AM 60 °F 40 °F 37%  in 6 mi SE 8.1 mph - -   Partly Cloudy
2:00 AM 60.8 °F 41.0 °F 48% 30.15 in - SE 8.1 mph - N/A   Clear
3:00 AM 59.0 °F 44.6 °F 59% 30.15 in - ESE 6.9 mph - N/A   Clear
4:00 AM 59.0 °F 46.4 °F 63% 30.15 in - ESE 13.8 mph - N/A   Clear
5:00 AM 57.2 °F 46.4 °F 67% 30.15 in - ESE 13.8 mph - N/A   Clear
6:00 AM 55.4 °F 46.4 °F 72% 30.18 in - East 13.8 mph - N/A   Clear
7:00 AM 55.4 °F 46.4 °F 72% 30.21 in - ESE 11.5 mph - N/A   Clear
8:00 AM 57 °F 48 °F 63%  in 6 mi East 13.8 mph - -   Haze
8:00 AM 57.2 °F 48.2 °F 72% 30.21 in - East 13.8 mph - N/A   Clear
9:00 AM 62.6 °F 50.0 °F 63% 30.24 in - East 15.0 mph - N/A   Clear
10:00 AM 68.0 °F 50.0 °F 52% 30.27 in - East 15.0 mph - N/A   Clear
11:00 AM 73.4 °F 50.0 °F 44% 30.24 in - East 11.5 mph - N/A   Clear
12:00 PM 77.0 °F 48.2 °F 36% 30.21 in - East 8.1 mph - N/A   Clear
1:00 PM 80.6 °F 48.2 °F 32% 30.18 in - East 9.2 mph - N/A   Clear
2:00 PM 83 °F 46 °F 18%  in 6 mi ENE 10.4 mph - -   Haze
2:00 PM 82.4 °F 46.4 °F 28% 30.15 in - ENE 10.4 mph - N/A   Clear
3:00 PM 86.0 °F 44.6 °F 23% 30.12 in - ENE 3.5 mph - N/A   Clear
4:00 PM 86.0 °F 39.2 °F 19% 30.09 in - East 6.9 mph - N/A   Clear
5:00 PM 86.0 °F 35.6 °F 17% 30.09 in - East 3.5 mph - N/A   Clear
6:00 PM 84.2 °F 32.0 °F 15% 30.09 in - NE 3.5 mph - N/A   Clear
7:00 PM 75.2 °F 33.8 °F 22% 30.09 in - Variable 1.2 mph - N/A   Clear
8:00 PM 74 °F 36 °F 15%  in 6 mi SE 2.3 mph - -   Partly Cloudy
8:00 PM 73.4 °F 35.6 °F 25% 30.12 in - Variable 2.3 mph - N/A   Clear
9:00 PM 69.8 °F 35.6 °F 28% 30.15 in - SSE 4.6 mph - N/A   Clear
10:00 PM 68.0 °F 39.2 °F 35% 30.15 in - SE 9.2 mph - N/A   Clear
11:00 PM 64.4 °F 41.0 °F 42% 30.15 in - SE 6.9 mph - N/A   Clear